Location: ??
(35.5653°N, 139.6194°E)
Time: 15:26:55
(UTC+00:00)

Cosmos 372 Rocket - Pass Details

Date: 20 November 2019
Orbit: 739 x 767 km, 74.1° (Epoch: 07 December)

Event Time Altitude Azimuth Distance (km) Brightness Sun altitude
Exits shadow 19:04:47 - 187° (S) 2,317 6.5 -27.8°
Reaches altitude 10° 19:04:55 10° 187° (S) 2,267 6.4 -27.7°
Maximum altitude 19:10:01 68° 105° (ESE) 808 4.2 -26.7°
Drops below altitude 10° 19:15:06 10° 23° (NNE) 2,264 6.6 -25.7°
Sets 19:17:28 0° 21° (NNE) 3,188 7.4 -25.2°
